This is the latest recevied weather packets stored in our database for station/object KC8JWT. If no packets are shown the sender has not sent any weather packets the latest 10 day(s).
| Time | Temp. | Humidity | Pressure | Rain* | Wind** | Luminosity | Snow |
|---|---|---|---|---|---|---|---|
| 1778191221 | 17.78° C | 28% | 1012.3 hPa | 0 mm | - | 331 W/m² | - |
| 1778190917 | 17.78° C | 28% | 1012.1 hPa | 0 mm | - | 342 W/m² | - |
| 1778190615 | 17.78° C | 27% | 1012.1 hPa | 0 mm | - | 356 W/m² | - |
| 1778190312 | 17.78° C | 28% | 1011.9 hPa | 0 mm | - | 369 W/m² | - |
| 1778190007 | 17.78° C | 29% | 1012 hPa | 0 mm | - | 393 W/m² | - |
| 1778189704 | 17.78° C | 28% | 1012 hPa | 0 mm | - | 406 W/m² | - |
| 1778189401 | 17.78° C | 28% | 1011.8 hPa | 0 mm | - | 426 W/m² | - |
| 1778189097 | 18.33° C | 27% | 1011.7 hPa | 0 mm | - | 459 W/m² | - |
| 1778188794 | 18.33° C | 27% | 1011.8 hPa | 0 mm | - | 459 W/m² | - |
| 1778188490 | 18.33° C | 25% | 1011.8 hPa | 0 mm | - | 476 W/m² | - |
| 1778188187 | 18.33° C | 24% | 1011.7 hPa | 0 mm | - | 479 W/m² | - |
| 1778187884 | 18.33° C | 27% | 1011.7 hPa | 0 mm | - | 501 W/m² | - |
| 1778187581 | 18.33° C | 27% | 1011.7 hPa | 0 mm | - | 513 W/m² | - |
| 1778187278 | 18.33° C | 27% | 1011.7 hPa | 0 mm | - | 521 W/m² | - |
| 1778186974 | 18.89° C | 27% | 1011.7 hPa | 0 mm | - | 540 W/m² | - |
| 1778186670 | 18.33° C | 27% | 1011.8 hPa | 0 mm | - | 553 W/m² | - |
| 1778186368 | 18.33° C | 25% | 1011.8 hPa | 0 mm | - | 570 W/m² | - |
| 1778186066 | 18.33° C | 27% | 1011.4 hPa | 0 mm | - | 590 W/m² | - |
| 1778185762 | 18.33° C | 27% | 1011.5 hPa | 0 mm | - | 609 W/m² | - |
| 1778185459 | 18.33° C | 27% | 1011.4 hPa | 0 mm | - | 618 W/m² | - |
| 1778185154 | 18.33° C | 26% | 1011.5 hPa | 0 mm | - | 646 W/m² | - |
| 1778184850 | 18.89° C | 28% | 1011.7 hPa | 0 mm | - | 675 W/m² | - |
| 1778184547 | 18.89° C | 28% | 1011.7 hPa | 0 mm | - | 659 W/m² | - |
| 1778184243 | 18.33° C | 28% | 1011.8 hPa | 0 mm | - | 675 W/m² | - |
| 1778183938 | 18.33° C | 29% | 1011.8 hPa | 0 mm | - | 691 W/m² | - |
* Rain latest hour (hover to see other rain measurements)
** Current wind speed in m/s (hover to see current wind gust speed)